TimeMDT,TemperatureF,Dew PointF,Humidity,Sea Level PressureIn,VisibilityMPH,Wind Direction,Wind SpeedMPH,Gust SpeedMPH,PrecipitationIn,Events,Conditions,WindDirDegrees,DateUTC
12:53 AM,45.0,33.1,63,30.09,10.0,WSW,9.2,-,N/A,,Clear,250,2013-10-07 06:53:00
1:53 AM,39.9,32.0,73,30.11,10.0,West,3.5,-,N/A,,Clear,260,2013-10-07 07:53:00
2:53 AM,39.9,30.0,68,30.08,10.0,West,4.6,-,N/A,,Clear,280,2013-10-07 08:53:00
3:53 AM,37.0,28.0,70,30.07,10.0,SSW,6.9,-,N/A,,Clear,210,2013-10-07 09:53:00
4:53 AM,37.0,27.0,67,30.07,10.0,WSW,4.6,-,N/A,,Clear,240,2013-10-07 10:53:00
5:53 AM,44.1,25.0,47,30.04,10.0,West,11.5,-,N/A,,Clear,260,2013-10-07 11:53:00
6:53 AM,45.0,24.1,44,30.06,10.0,Calm,Calm,-,N/A,,Clear,0,2013-10-07 12:53:00
7:53 AM,48.0,26.1,42,30.06,10.0,WSW,11.5,-,N/A,,Clear,240,2013-10-07 13:53:00
8:53 AM,55.9,27.0,33,30.04,10.0,SW,9.2,-,N/A,,Clear,220,2013-10-07 14:53:00
9:53 AM,64.0,26.1,24,30.01,10.0,West,12.7,-,N/A,,Clear,260,2013-10-07 15:53:00
10:53 AM,66.0,24.1,20,30.01,10.0,SSW,13.8,-,N/A,,Clear,210,2013-10-07 16:53:00
11:53 AM,69.1,26.1,20,29.96,10.0,SSW,11.5,-,N/A,,Clear,210,2013-10-07 17:53:00
12:53 PM,69.1,28.0,22,29.94,10.0,South,12.7,-,N/A,,Clear,180,2013-10-07 18:53:00
1:53 PM,70.0,28.0,21,29.93,10.0,SSW,13.8,-,N/A,,Clear,210,2013-10-07 19:53:00
2:53 PM,70.0,28.0,21,29.91,10.0,South,10.4,-,N/A,,Clear,170,2013-10-07 20:53:00
3:53 PM,71.1,28.9,21,29.90,10.0,South,11.5,-,N/A,,Clear,190,2013-10-07 21:53:00
4:53 PM,68.0,28.9,23,29.89,10.0,SSW,15.0,-,N/A,,Clear,210,2013-10-07 22:53:00
5:53 PM,63.0,33.1,33,29.88,10.0,SSW,11.5,-,N/A,,Clear,200,2013-10-07 23:53:00
6:53 PM,57.0,35.1,44,29.91,10.0,SW,10.4,-,N/A,,Clear,220,2013-10-08 00:53:00
7:53 PM,53.1,36.0,52,29.90,10.0,WSW,3.5,-,N/A,,Clear,250,2013-10-08 01:53:00
8:53 PM,50.0,37.0,61,29.89,10.0,WSW,6.9,-,N/A,,Clear,240,2013-10-08 02:53:00
9:53 PM,50.0,34.0,54,29.84,10.0,West,6.9,-,N/A,,Clear,270,2013-10-08 03:53:00
10:53 PM,48.9,34.0,56,29.82,10.0,WNW,6.9,-,N/A,,Clear,290,2013-10-08 04:53:00
11:53 PM,48.9,33.1,54,29.79,10.0,WNW,10.4,-,N/A,,Clear,290,2013-10-08 05:53:00